AIC130 EGLL-VABB

Flight info

Callsign AIC130
Flight time N/A
Altitude 35000
Route DET L6 DVR UL9 KONAN DCT KOK DCT KOMOB DCT PITES DCT BABEG DCT KUMOM DCT VEKEN DCT ELTIB DCT AKIKA DCT MAVAR DCT BITLA UN132 KEA UL607 GENDO/N0474F370 UL607 PAXIS L607 NABSI P557 OBRAN L321 REXUM M872 PMA Y214 NAGUB/N0482F390 Y214 RAPMA DCT MEVDO DCT ALROK DCT DEBIN DCT MIDGU M440 TULBU N881 AMBOS M700 PARAR N571 SUGID KETOR2A
Aircraft B77L/H-SDE1E2E3FGHIJ2J3J4J5M1RWXY/LB1D1

Departure

Time N/A
Airport London Heathrow Airport (EGLL)

Arrival

Time 2026-05-07 05:01
Airport Chhatrapati Shivaji Maharaj International Airport (VABB)
Time Latitude Longitude Altitude Speed Heading
2026-05-07 03:32 20.90619 66.46494 34873 ft 518 kts 116°
2026-05-07 03:33 20.89035 66.49956 34872 ft 518 kts 116°
2026-05-07 03:33 20.85864 66.56879 34868 ft 518 kts 116°
2026-05-07 03:34 20.82689 66.63802 34871 ft 519 kts 116°
2026-05-07 03:34 20.79511 66.70723 34871 ft 519 kts 116°
2026-05-07 03:35 20.76866 66.76475 34871 ft 519 kts 116°
2026-05-07 03:35 20.73160 66.84525 34870 ft 519 kts 116°
2026-05-07 03:36 20.70507 66.90281 34872 ft 519 kts 116°
2026-05-07 03:36 20.67292 66.97248 34873 ft 519 kts 116°
2026-05-07 03:37 20.64115 67.04123 34873 ft 519 kts 116°
2026-05-07 03:37 20.60916 67.11038 34874 ft 519 kts 116°
2026-05-07 03:38 20.57708 67.17961 34875 ft 520 kts 116°
2026-05-07 03:38 20.54503 67.24871 34875 ft 520 kts 116°
2026-05-07 03:39 20.51306 67.31754 34875 ft 520 kts 116°
2026-05-07 03:39 20.48088 67.38676 34875 ft 520 kts 117°
2026-05-07 03:40 20.44872 67.45581 34874 ft 520 kts 117°
2026-05-07 03:40 20.41649 67.52495 34878 ft 520 kts 117°
2026-05-07 03:41 20.38441 67.59366 34878 ft 520 kts 117°
2026-05-07 03:41 20.35217 67.66265 34876 ft 520 kts 117°
2026-05-07 03:42 20.31989 67.73162 34876 ft 519 kts 117°
2026-05-07 03:42 20.28761 67.80050 34875 ft 519 kts 117°
2026-05-07 03:43 20.25530 67.86939 34877 ft 519 kts 117°
2026-05-07 03:43 20.22298 67.93818 34876 ft 519 kts 117°
2026-05-07 03:44 20.19079 68.00662 34607 ft 516 kts 117°
2026-05-07 03:44 20.15884 68.07447 34623 ft 517 kts 117°
2026-05-07 03:45 20.12616 68.14379 34648 ft 522 kts 117°
2026-05-07 03:45 20.09373 68.21248 34650 ft 524 kts 117°
2026-05-07 03:46 20.06102 68.28169 34649 ft 524 kts 117°
2026-05-07 03:46 20.02829 68.35085 34650 ft 523 kts 117°
2026-05-07 03:47 19.99807 68.41463 34649 ft 522 kts 117°
2026-05-07 03:47 19.96543 68.48345 34648 ft 521 kts 117°
2026-05-07 03:48 19.93281 68.55213 34646 ft 519 kts 117°
2026-05-07 03:48 19.90026 68.62058 34647 ft 518 kts 117°
2026-05-07 03:49 19.86775 68.68886 34646 ft 518 kts 117°
2026-05-07 03:49 19.83520 68.75715 34646 ft 517 kts 117°
2026-05-07 03:50 19.80268 68.82528 34647 ft 517 kts 117°
2026-05-07 03:50 19.77014 68.89339 34647 ft 517 kts 117°
2026-05-07 03:51 19.73753 68.96156 34648 ft 517 kts 117°
2026-05-07 03:51 19.70514 69.02918 34646 ft 517 kts 117°
2026-05-07 03:52 19.67254 69.09716 34650 ft 517 kts 117°
2026-05-07 03:52 19.63992 69.16512 34670 ft 519 kts 117°
2026-05-07 03:52 19.62350 69.19929 34782 ft 520 kts 117°
2026-05-07 03:53 19.60706 69.23350 34828 ft 519 kts 117°
2026-05-07 03:53 19.57442 69.30134 34871 ft 514 kts 117°
2026-05-07 03:54 19.54187 69.36896 34877 ft 513 kts 117°
2026-05-07 03:54 19.50961 69.43635 34880 ft 513 kts 117°
2026-05-07 03:55 19.47736 69.50382 34880 ft 513 kts 117°
2026-05-07 03:55 19.44529 69.57083 34878 ft 513 kts 117°
2026-05-07 03:56 19.41289 69.63839 34878 ft 514 kts 117°
2026-05-07 03:56 19.38045 69.70595 34878 ft 514 kts 117°
2026-05-07 03:57 19.34794 69.77356 34877 ft 515 kts 117°
2026-05-07 03:57 19.31564 69.84067 34875 ft 515 kts 117°
2026-05-07 03:58 19.28308 69.90825 34873 ft 515 kts 117°
2026-05-07 03:58 19.25050 69.97579 34872 ft 515 kts 117°
2026-05-07 03:59 19.21791 70.04328 34867 ft 515 kts 117°
2026-05-07 03:59 19.18529 70.11076 34869 ft 515 kts 117°
2026-05-07 04:00 19.15270 70.17811 34870 ft 515 kts 117°
2026-05-07 04:00 19.12111 70.24593 34877 ft 514 kts 114°
2026-05-07 04:01 19.09471 70.31631 34875 ft 515 kts 111°
2026-05-07 04:01 19.06977 70.38663 34874 ft 515 kts 111°
2026-05-07 04:02 19.04392 70.45738 34875 ft 515 kts 112°
2026-05-07 04:02 19.01756 70.52770 34879 ft 515 kts 112°
2026-05-07 04:03 18.99308 70.59256 34882 ft 514 kts 112°
2026-05-07 04:03 18.96692 70.66185 34778 ft 499 kts 112°
2026-05-07 04:04 18.94176 70.72857 34657 ft 480 kts 112°
2026-05-07 04:04 18.91762 70.79253 34540 ft 463 kts 112°
2026-05-07 04:05 18.89412 70.85468 34394 ft 448 kts 112°
2026-05-07 04:05 18.88261 70.88511 34202 ft 444 kts 112°
2026-05-07 04:05 18.87115 70.91537 33922 ft 444 kts 112°
2026-05-07 04:05 18.85981 70.94529 33521 ft 445 kts 112°
2026-05-07 04:06 18.84828 70.97571 33100 ft 447 kts 112°
2026-05-07 04:06 18.83672 71.00618 32709 ft 448 kts 112°
2026-05-07 04:06 18.82509 71.03681 32302 ft 449 kts 111°
2026-05-07 04:06 18.81347 71.06744 31902 ft 450 kts 111°
2026-05-07 04:07 18.80183 71.09808 31503 ft 451 kts 111°
2026-05-07 04:07 18.79012 71.12889 31101 ft 452 kts 111°
2026-05-07 04:07 18.77837 71.15978 30717 ft 453 kts 111°
2026-05-07 04:07 18.76695 71.18979 30313 ft 454 kts 111°
2026-05-07 04:08 18.75515 71.22080 29906 ft 456 kts 111°
2026-05-07 04:08 18.74330 71.25190 29425 ft 457 kts 111°
2026-05-07 04:08 18.73141 71.28308 28950 ft 458 kts 111°
2026-05-07 04:08 18.71966 71.31390 28477 ft 459 kts 111°
2026-05-07 04:09 18.70775 71.34510 27992 ft 460 kts 111°
2026-05-07 04:09 18.69579 71.37643 27499 ft 461 kts 111°
2026-05-07 04:09 18.68378 71.40787 27007 ft 463 kts 111°
2026-05-07 04:09 18.67171 71.43944 26500 ft 464 kts 111°
2026-05-07 04:10 18.65958 71.47117 26002 ft 465 kts 111°
2026-05-07 04:10 18.64746 71.50284 25502 ft 467 kts 110°
2026-05-07 04:10 18.63532 71.53453 24990 ft 468 kts 110°
2026-05-07 04:10 18.62306 71.56655 24470 ft 470 kts 110°
2026-05-07 04:11 18.61079 71.59854 23967 ft 471 kts 110°
2026-05-07 04:11 18.59849 71.63060 23470 ft 472 kts 110°
2026-05-07 04:11 18.58617 71.66271 22871 ft 473 kts 110°
2026-05-07 04:11 18.57384 71.69482 22336 ft 472 kts 110°
2026-05-07 04:12 18.56168 71.72646 21801 ft 470 kts 110°
2026-05-07 04:12 18.54941 71.75839 21235 ft 470 kts 111°
2026-05-07 04:12 18.53717 71.79019 20663 ft 469 kts 111°
2026-05-07 04:12 18.52489 71.82211 20066 ft 469 kts 111°
2026-05-07 04:13 18.51269 71.85377 19830 ft 460 kts 111°
2026-05-07 04:13 18.50084 71.88450 19757 ft 447 kts 111°
2026-05-07 04:13 18.48925 71.91454 19705 ft 436 kts 111°
2026-05-07 04:13 18.47794 71.94387 19636 ft 426 kts 111°
2026-05-07 04:14 18.46694 71.97237 19578 ft 417 kts 111°
2026-05-07 04:14 18.45609 72.00048 19520 ft 408 kts 111°
2026-05-07 04:14 18.44551 72.02790 19474 ft 401 kts 111°
2026-05-07 04:14 18.43512 72.05478 19436 ft 393 kts 111°
2026-05-07 04:15 18.42461 72.08103 19370 ft 383 kts 116°
2026-05-07 04:15 18.40897 72.10324 19315 ft 377 kts 137°
2026-05-07 04:15 18.38736 72.11842 19266 ft 370 kts 157°
2026-05-07 04:15 18.36287 72.12542 19229 ft 362 kts 176°
2026-05-07 04:16 18.33810 72.12430 19038 ft 355 kts 194°
2026-05-07 04:16 18.31559 72.11550 18800 ft 347 kts 212°
2026-05-07 04:16 18.29688 72.10016 18552 ft 340 kts 229°
2026-05-07 04:16 18.28347 72.07997 18266 ft 335 kts 246°
2026-05-07 04:17 18.27628 72.05689 17907 ft 331 kts 262°
2026-05-07 04:17 18.27436 72.03285 17551 ft 329 kts 272°
2026-05-07 04:17 18.27827 72.00941 17178 ft 323 kts 291°
2026-05-07 04:17 18.28675 71.98753 16755 ft 324 kts 293°
2026-05-07 04:18 18.29551 71.96572 16444 ft 323 kts 293°
2026-05-07 04:18 18.30418 71.94390 16089 ft 323 kts 292°
2026-05-07 04:18 18.31273 71.92206 15779 ft 321 kts 291°
2026-05-07 04:18 18.32112 71.90031 15464 ft 321 kts 291°
2026-05-07 04:19 18.32936 71.87883 15136 ft 321 kts 291°
2026-05-07 04:19 18.33770 71.85703 14811 ft 321 kts 291°
2026-05-07 04:19 18.34787 71.83640 14410 ft 321 kts 307°
2026-05-07 04:19 18.36412 71.82016 14059 ft 323 kts 325°
2026-05-07 04:20 18.38382 71.80901 13805 ft 321 kts 339°
2026-05-07 04:20 18.40534 71.80311 13508 ft 320 kts 353°
2026-05-07 04:20 18.42748 71.80338 13188 ft 319 kts 10°
2026-05-07 04:21 18.46618 71.82339 12846 ft 305 kts 45°
2026-05-07 04:21 18.47947 71.84076 12863 ft 307 kts 61°
2026-05-07 04:21 18.48805 71.86130 12834 ft 307 kts 76°
2026-05-07 04:21 18.49199 71.88336 12655 ft 305 kts 86°
2026-05-07 04:22 18.49177 71.90541 12362 ft 301 kts 102°
2026-05-07 04:22 18.48526 71.92617 11996 ft 295 kts 114°
2026-05-07 04:22 18.47741 71.94589 11888 ft 296 kts 114°
2026-05-07 04:22 18.46944 71.96600 11881 ft 299 kts 114°
2026-05-07 04:23 18.46414 71.97945 11878 ft 300 kts 114°
2026-05-07 04:23 18.45622 71.99978 11863 ft 299 kts 114°
2026-05-07 04:23 18.44841 72.02003 11857 ft 298 kts 114°
2026-05-07 04:23 18.44065 72.04021 11869 ft 297 kts 113°
2026-05-07 04:24 18.43291 72.06039 11864 ft 296 kts 114°
2026-05-07 04:24 18.42489 72.08021 11853 ft 291 kts 121°
2026-05-07 04:24 18.41129 72.09557 11877 ft 292 kts 150°
2026-05-07 04:24 18.39190 72.10192 11874 ft 297 kts 178°
2026-05-07 04:25 18.37177 72.09756 11874 ft 299 kts 206°
2026-05-07 04:25 18.35594 72.08355 11857 ft 302 kts 234°
2026-05-07 04:25 18.34829 72.06302 11857 ft 307 kts 263°
2026-05-07 04:25 18.35130 72.04087 11860 ft 307 kts 290°
2026-05-07 04:26 18.35970 72.02018 11882 ft 310 kts 292°
2026-05-07 04:26 18.36823 71.99910 11883 ft 314 kts 291°
2026-05-07 04:26 18.37661 71.97781 11878 ft 314 kts 290°
2026-05-07 04:26 18.38628 71.95774 11855 ft 310 kts 308°
2026-05-07 04:27 18.40330 71.94424 11878 ft 311 kts 340°
2026-05-07 04:27 18.42467 71.94157 11881 ft 313 kts 11°
2026-05-07 04:27 18.44453 71.95047 11881 ft 313 kts 41°
2026-05-07 04:27 18.45744 71.96837 11880 ft 307 kts 71°
2026-05-07 04:28 18.45999 71.99029 11864 ft 302 kts 102°
2026-05-07 04:28 18.45299 72.01074 11883 ft 295 kts 116°
2026-05-07 04:28 18.44471 72.03058 11863 ft 297 kts 114°
2026-05-07 04:28 18.43675 72.05075 11876 ft 299 kts 114°
2026-05-07 04:29 18.42888 72.07108 11878 ft 300 kts 113°
2026-05-07 04:29 18.42404 72.09287 11882 ft 324 kts 90°
2026-05-07 04:29 18.42976 72.11669 11887 ft 362 kts 63°
2026-05-07 04:29 18.44658 72.13793 11884 ft 397 kts 39°
2026-05-07 04:30 18.47017 72.15387 11873 ft 406 kts 31°
2026-05-07 04:30 18.49460 72.16892 11871 ft 408 kts 33°
2026-05-07 04:30 18.51785 72.18556 11848 ft 406 kts 38°
2026-05-07 04:30 18.53978 72.20429 11780 ft 400 kts 43°
2026-05-07 04:31 18.55992 72.22398 11678 ft 387 kts 46°
2026-05-07 04:31 18.57861 72.24385 11420 ft 375 kts 47°
2026-05-07 04:31 18.59625 72.26343 11160 ft 363 kts 48°
2026-05-07 04:31 18.61323 72.28262 10922 ft 353 kts 49°
2026-05-07 04:32 18.62972 72.30137 10661 ft 343 kts 49°
2026-05-07 04:32 18.64573 72.31956 10415 ft 337 kts 49°
2026-05-07 04:32 18.66164 72.33763 10172 ft 334 kts 49°
2026-05-07 04:32 18.67746 72.35559 9951 ft 333 kts 49°
2026-05-07 04:33 18.69323 72.37346 9712 ft 332 kts 49°
2026-05-07 04:33 18.70896 72.39128 9470 ft 330 kts 49°
2026-05-07 04:33 18.72448 72.40885 9211 ft 322 kts 49°
2026-05-07 04:33 18.73938 72.42570 8958 ft 314 kts 49°
2026-05-07 04:34 18.75407 72.44234 8694 ft 306 kts 49°
2026-05-07 04:34 18.76613 72.45599 8473 ft 299 kts 49°
2026-05-07 04:34 18.78013 72.47184 8223 ft 292 kts 48°
2026-05-07 04:34 18.79379 72.48732 7966 ft 285 kts 48°
2026-05-07 04:35 18.80544 72.50053 7749 ft 279 kts 48°
2026-05-07 04:35 18.81855 72.51539 7507 ft 276 kts 48°
2026-05-07 04:35 18.83160 72.53020 7278 ft 275 kts 48°
2026-05-07 04:35 18.84461 72.54495 7039 ft 274 kts 48°
2026-05-07 04:36 18.85757 72.55966 6798 ft 273 kts 47°
2026-05-07 04:36 18.87049 72.57432 6593 ft 272 kts 47°
2026-05-07 04:36 18.88340 72.58896 6360 ft 272 kts 47°
2026-05-07 04:36 18.89623 72.60357 6108 ft 269 kts 49°
2026-05-07 04:37 18.90530 72.62045 5834 ft 266 kts 74°
2026-05-07 04:37 18.90749 72.63958 5609 ft 264 kts 86°
2026-05-07 04:37 18.90825 72.65914 5384 ft 268 kts 86°
2026-05-07 04:37 18.90897 72.67904 5156 ft 272 kts 86°
2026-05-07 04:38 18.90968 72.69902 4921 ft 272 kts 86°
2026-05-07 04:38 18.91039 72.71876 4686 ft 272 kts 86°
2026-05-07 04:38 18.91114 72.73871 4447 ft 272 kts 86°
2026-05-07 04:38 18.91190 72.75872 4215 ft 272 kts 86°
2026-05-07 04:39 18.91267 72.77866 3965 ft 269 kts 86°
2026-05-07 04:39 18.91343 72.79820 3712 ft 263 kts 86°
2026-05-07 04:39 18.91418 72.81741 3493 ft 262 kts 85°
2026-05-07 04:39 18.91494 72.83663 3265 ft 263 kts 85°
2026-05-07 04:40 18.91570 72.85589 3099 ft 260 kts 86°
2026-05-07 04:40 18.91644 72.87473 3058 ft 257 kts 85°
2026-05-07 04:40 18.91719 72.89373 3034 ft 261 kts 86°
2026-05-07 04:40 18.91795 72.91294 3028 ft 264 kts 86°
2026-05-07 04:41 18.91872 72.93237 3021 ft 264 kts 86°
2026-05-07 04:41 18.91948 72.95170 3020 ft 263 kts 85°
2026-05-07 04:41 18.92023 72.97108 3027 ft 262 kts 86°
2026-05-07 04:41 18.92098 72.99033 3015 ft 262 kts 86°
2026-05-07 04:42 18.92173 73.00950 3020 ft 261 kts 86°
2026-05-07 04:42 18.92247 73.02868 3031 ft 260 kts 86°
2026-05-07 04:42 18.92320 73.04768 3027 ft 257 kts 86°
2026-05-07 04:42 18.92393 73.06651 3019 ft 256 kts 86°
2026-05-07 04:43 18.92465 73.08516 3030 ft 258 kts 85°
2026-05-07 04:43 18.92538 73.10411 3022 ft 259 kts 85°
2026-05-07 04:43 18.92611 73.12312 3043 ft 259 kts 86°
2026-05-07 04:43 18.92684 73.14220 3033 ft 260 kts 85°
2026-05-07 04:44 18.92758 73.16125 3039 ft 260 kts 85°
2026-05-07 04:44 18.92810 73.17376 3033 ft 260 kts 86°
2026-05-07 04:45 18.92874 73.18941 3049 ft 259 kts 85°
2026-05-07 04:45 18.92954 73.20838 3036 ft 257 kts 86°
2026-05-07 04:45 18.93013 73.22263 3052 ft 248 kts 86°
2026-05-07 04:45 18.93076 73.23775 3016 ft 237 kts 85°
2026-05-07 04:46 18.93149 73.25541 3044 ft 244 kts 85°
2026-05-07 04:46 18.93222 73.27318 3052 ft 237 kts 86°
2026-05-07 04:46 18.93292 73.29027 3030 ft 229 kts 85°
2026-05-07 04:46 18.93363 73.30706 3031 ft 225 kts 85°
2026-05-07 04:47 18.93428 73.32326 3041 ft 218 kts 85°
2026-05-07 04:47 18.93493 73.33935 3058 ft 219 kts 85°
2026-05-07 04:47 18.93558 73.35522 3053 ft 218 kts 85°
2026-05-07 04:47 18.93626 73.37124 3038 ft 217 kts 85°
2026-05-07 04:48 18.93776 73.38677 3028 ft 208 kts 66°
2026-05-07 04:48 18.94612 73.39879 3039 ft 205 kts 31°
2026-05-07 04:48 18.95939 73.40334 3085 ft 209 kts
2026-05-07 04:48 18.97336 73.39945 3073 ft 207 kts 328°
2026-05-07 04:49 18.98267 73.38860 3043 ft 191 kts 298°
2026-05-07 04:49 18.98748 73.37629 3023 ft 173 kts 292°
2026-05-07 04:49 18.99144 73.36457 3041 ft 166 kts 291°
2026-05-07 04:49 18.99527 73.35303 3057 ft 167 kts 292°
2026-05-07 04:50 18.99921 73.34121 3050 ft 172 kts 292°
2026-05-07 04:50 19.00316 73.32941 3057 ft 172 kts 291°
2026-05-07 04:50 19.00721 73.31731 3036 ft 173 kts 291°
2026-05-07 04:50 19.01121 73.30539 3047 ft 173 kts 291°
2026-05-07 04:51 19.01520 73.29352 3050 ft 174 kts 292°
2026-05-07 04:51 19.01935 73.28152 3047 ft 173 kts 295°
2026-05-07 04:51 19.02460 73.27013 3049 ft 171 kts 300°
2026-05-07 04:51 19.02999 73.25897 3044 ft 169 kts 299°
2026-05-07 04:52 19.03546 73.24810 3037 ft 166 kts 300°
2026-05-07 04:52 19.04074 73.23736 3051 ft 167 kts 300°
2026-05-07 04:52 19.04693 73.22683 3016 ft 169 kts 317°
2026-05-07 04:52 19.05528 73.21814 3029 ft 172 kts 312°
2026-05-07 04:53 19.06276 73.20823 3031 ft 173 kts 310°
2026-05-07 04:53 19.07020 73.19819 3048 ft 174 kts 310°
2026-05-07 04:53 19.07761 73.18822 3026 ft 169 kts 310°
2026-05-07 04:53 19.08477 73.17848 3035 ft 166 kts 310°
2026-05-07 04:54 19.09034 73.16781 3026 ft 169 kts 283°
2026-05-07 04:54 19.09109 73.15574 3046 ft 163 kts 276°
2026-05-07 04:54 19.09174 73.14382 3023 ft 161 kts 275°
2026-05-07 04:54 19.09201 73.13204 3034 ft 163 kts 273°
2026-05-07 04:55 19.09206 73.11995 3043 ft 166 kts 273°
2026-05-07 04:55 19.09198 73.10759 3028 ft 167 kts 272°
2026-05-07 04:55 19.09185 73.09583 3009 ft 154 kts 272°
2026-05-07 04:55 19.09170 73.08471 3000 ft 148 kts 272°
2026-05-07 04:56 19.09156 73.07379 3030 ft 150 kts 272°
2026-05-07 04:56 19.09140 73.06279 3019 ft 150 kts 272°
2026-05-07 04:56 19.09126 73.05176 3029 ft 149 kts 272°
2026-05-07 04:56 19.09112 73.04064 2893 ft 154 kts 272°
2026-05-07 04:57 19.09096 73.02929 2719 ft 155 kts 271°
2026-05-07 04:57 19.09080 73.01818 2497 ft 146 kts 271°
2026-05-07 04:57 19.09063 73.00755 2339 ft 145 kts 271°
2026-05-07 04:57 19.09049 72.99676 2129 ft 147 kts 271°
2026-05-07 04:58 19.09035 72.98610 1962 ft 145 kts 271°
2026-05-07 04:58 19.09020 72.97541 1782 ft 146 kts 271°
2026-05-07 04:58 19.09006 72.96492 1593 ft 144 kts 271°
2026-05-07 04:58 19.08991 72.95422 1395 ft 145 kts 271°
2026-05-07 04:59 19.08977 72.94388 1235 ft 141 kts 270°
2026-05-07 04:59 19.08962 72.93316 1039 ft 144 kts 270°
2026-05-07 04:59 19.08948 72.92276 873 ft 143 kts 270°
2026-05-07 04:59 19.08932 72.91273 721 ft 141 kts 270°
2026-05-07 05:00 19.08919 72.90228 558 ft 140 kts 270°
2026-05-07 05:00 19.08904 72.89186 357 ft 142 kts 269°
2026-05-07 05:00 19.08890 72.88158 176 ft 139 kts 269°
2026-05-07 05:00 19.08876 72.87149 55 ft 133 kts 268°
2026-05-07 05:01 19.08852 72.86287 47 ft 92 kts 268°
2026-05-07 05:01 19.08847 72.86083 51 ft 0 kts 274°
2026-05-07 05:01 19.08848 72.86079 51 ft 3 kts 281°
2026-05-07 05:01 19.08870 72.86022 46 ft 14 kts 289°
2026-05-07 05:02 19.08917 72.85900 49 ft 22 kts 298°
2026-05-07 05:02 19.08964 72.85811 52 ft 0 kts 300°
2026-05-07 05:03 19.08964 72.85810 52 ft 0 kts 300°
2026-05-07 05:03 19.08975 72.85791 49 ft 8 kts 301°
2026-05-07 05:03 19.09011 72.85755 47 ft 1 kts 346°
2026-05-07 05:04 19.09024 72.85773 47 ft 5 kts 75°
2026-05-07 05:04 19.09031 72.85845 53 ft 15 kts 88°
2026-05-07 05:04 19.09034 72.85987 53 ft 24 kts 89°
2026-05-07 05:04 19.09036 72.86180 53 ft 24 kts 89°
2026-05-07 05:05 19.09049 72.86313 49 ft 15 kts 68°
2026-05-07 05:05 19.09120 72.86412 49 ft 19 kts 50°
2026-05-07 05:05 19.09218 72.86525 48 ft 22 kts 49°
2026-05-07 05:05 19.09325 72.86654 50 ft 24 kts 48°
2026-05-07 05:06 19.09420 72.86789 50 ft 21 kts 86°
2026-05-07 05:06 19.09336 72.86910 47 ft 21 kts 134°
2026-05-07 05:06 19.09258 72.86995 48 ft 13 kts 134°
2026-05-07 05:06 19.09232 72.87084 49 ft 13 kts 94°
2026-05-07 05:07 19.09281 72.87145 47 ft 12 kts
2026-05-07 05:07 19.09288 72.87145 52 ft 1 kts
2026-05-07 05:07 19.09298 72.87145 52 ft 2 kts
2026-05-07 05:07 19.09312 72.87145 54 ft 0 kts 360°